Year,Month,Day,Hour,Minute,Value (Times are PST for temperature in C)
2016,09,26,00,00,12.60
2016,09,26,00,01,12.70
2016,09,26,00,02,12.70
2016,09,26,00,03,12.70
2016,09,26,00,04,12.80
2016,09,26,00,05,12.80
2016,09,26,00,06,12.80
2016,09,26,00,07,12.90
2016,09,26,00,08,12.90
2016,09,26,00,09,12.90
2016,09,26,00,10,13.00
2016,09,26,00,11,13.00
2016,09,26,00,12,13.00
2016,09,26,00,13,13.00
2016,09,26,00,14,13.10
2016,09,26,00,15,13.10
2016,09,26,00,16,13.10
2016,09,26,00,17,13.10
2016,09,26,00,18,13.10
2016,09,26,00,19,13.10
2016,09,26,00,20,13.10
2016,09,26,00,21,13.20
2016,09,26,00,22,13.20
2016,09,26,00,23,13.20
2016,09,26,00,24,13.20
2016,09,26,00,25,13.30
2016,09,26,00,26,13.30
2016,09,26,00,27,13.30
2016,09,26,00,28,13.30
2016,09,26,00,29,13.30
2016,09,26,00,30,13.30
2016,09,26,00,31,13.30
2016,09,26,00,32,13.40
2016,09,26,00,33,13.40
2016,09,26,00,34,13.40
2016,09,26,00,35,13.40
2016,09,26,00,36,13.50
2016,09,26,00,37,13.50
2016,09,26,00,38,13.50
2016,09,26,00,39,13.50
2016,09,26,00,40,13.50
2016,09,26,00,41,13.60
2016,09,26,00,42,13.60
2016,09,26,00,43,13.60
2016,09,26,00,44,13.60
2016,09,26,00,45,13.60
2016,09,26,00,46,13.60
2016,09,26,00,47,13.60
2016,09,26,00,48,13.60
2016,09,26,00,49,13.60
2016,09,26,00,50,13.60
2016,09,26,00,51,13.60
2016,09,26,00,52,13.60
2016,09,26,00,53,13.60
2016,09,26,00,54,13.60
2016,09,26,00,55,13.50
2016,09,26,00,56,13.50
2016,09,26,00,57,13.50
2016,09,26,00,58,13.40
2016,09,26,00,59,13.40
2016,09,26,01,00,13.30
2016,09,26,01,01,13.30
2016,09,26,01,02,13.20
2016,09,26,01,03,13.10
2016,09,26,01,04,13.00
2016,09,26,01,05,12.90
2016,09,26,01,06,12.90
2016,09,26,01,07,12.80
2016,09,26,01,08,12.80
2016,09,26,01,09,12.70
2016,09,26,01,10,12.70
2016,09,26,01,11,12.70
2016,09,26,01,12,12.70
2016,09,26,01,13,12.70
2016,09,26,01,14,12.60
2016,09,26,01,15,12.60
2016,09,26,01,16,12.60
2016,09,26,01,17,12.60
2016,09,26,01,18,12.60
2016,09,26,01,19,12.70
2016,09,26,01,20,12.70
2016,09,26,01,21,12.70
2016,09,26,01,22,12.70
2016,09,26,01,23,12.70
2016,09,26,01,24,12.70
2016,09,26,01,25,12.70
2016,09,26,01,26,12.70
2016,09,26,01,27,12.70
2016,09,26,01,28,12.70
2016,09,26,01,29,12.70
2016,09,26,01,30,12.70
2016,09,26,01,31,12.60
2016,09,26,01,32,12.60
2016,09,26,01,33,12.50
2016,09,26,01,34,12.50
2016,09,26,01,35,12.40
2016,09,26,01,36,12.40
2016,09,26,01,37,12.30
2016,09,26,01,38,12.30
2016,09,26,01,39,12.20
2016,09,26,01,40,12.20
2016,09,26,01,41,12.10
2016,09,26,01,42,12.00
2016,09,26,01,43,12.00
2016,09,26,01,44,11.90
2016,09,26,01,45,11.90
2016,09,26,01,46,11.80
2016,09,26,01,47,11.80
2016,09,26,01,48,11.80
2016,09,26,01,49,11.80
2016,09,26,01,50,11.70
2016,09,26,01,51,11.70
2016,09,26,01,52,11.70
2016,09,26,01,53,11.70
2016,09,26,01,54,11.70
2016,09,26,01,55,11.70
2016,09,26,01,56,11.70
2016,09,26,01,57,11.70
2016,09,26,01,58,11.70
2016,09,26,01,59,11.70
2016,09,26,02,00,11.80
2016,09,26,02,01,11.80
2016,09,26,02,02,11.80
2016,09,26,02,03,11.80
2016,09,26,02,04,11.80
2016,09,26,02,05,11.80
2016,09,26,02,06,11.80
2016,09,26,02,07,11.70
2016,09,26,02,08,11.70
2016,09,26,02,09,11.70
2016,09,26,02,10,11.70
2016,09,26,02,11,11.70
2016,09,26,02,12,11.70
2016,09,26,02,13,11.70
2016,09,26,02,14,11.70
2016,09,26,02,15,11.70
2016,09,26,02,16,11.60
2016,09,26,02,17,11.60
2016,09,26,02,18,11.60
2016,09,26,02,19,11.50
2016,09,26,02,20,11.50
2016,09,26,02,21,11.40
2016,09,26,02,22,11.40
2016,09,26,02,23,11.30
2016,09,26,02,24,11.30
2016,09,26,02,25,11.30
2016,09,26,02,26,11.20
2016,09,26,02,27,11.20
2016,09,26,02,28,11.20
2016,09,26,02,29,11.10
2016,09,26,02,30,11.10
2016,09,26,02,31,11.10
2016,09,26,02,32,11.00
2016,09,26,02,33,11.00
2016,09,26,02,34,10.90
2016,09,26,02,35,10.90
2016,09,26,02,36,10.90
2016,09,26,02,37,10.90
2016,09,26,02,38,10.80
2016,09,26,02,39,10.80
2016,09,26,02,40,10.80
2016,09,26,02,41,10.80
2016,09,26,02,42,10.90
2016,09,26,02,43,10.90
2016,09,26,02,44,10.90
2016,09,26,02,45,10.90
2016,09,26,02,46,10.90
2016,09,26,02,47,10.90
2016,09,26,02,48,10.90
2016,09,26,02,49,10.90
2016,09,26,02,50,11.00
2016,09,26,02,51,11.10
2016,09,26,02,52,11.10
2016,09,26,02,53,11.20
2016,09,26,02,54,11.20
2016,09,26,02,55,11.20
2016,09,26,02,56,11.20
2016,09,26,02,57,11.30
2016,09,26,02,58,11.40
2016,09,26,02,59,11.40
2016,09,26,03,00,11.40
2016,09,26,03,01,11.40
2016,09,26,03,02,11.30
2016,09,26,03,03,11.20
2016,09,26,03,04,11.10
2016,09,26,03,05,11.00
2016,09,26,03,06,11.00
2016,09,26,03,07,10.90
2016,09,26,03,08,10.90
2016,09,26,03,09,10.90
2016,09,26,03,10,10.90
2016,09,26,03,11,10.90
2016,09,26,03,12,10.90
2016,09,26,03,13,10.90
2016,09,26,03,14,10.90
2016,09,26,03,15,10.90
2016,09,26,03,16,10.80
2016,09,26,03,17,10.80
2016,09,26,03,18,10.80
2016,09,26,03,19,10.80
2016,09,26,03,20,10.80
2016,09,26,03,21,10.80
2016,09,26,03,22,10.80
2016,09,26,03,23,10.80
2016,09,26,03,24,10.70
2016,09,26,03,25,10.80
2016,09,26,03,26,10.80
2016,09,26,03,27,10.80
2016,09,26,03,28,10.80
2016,09,26,03,29,10.80
2016,09,26,03,30,10.80
2016,09,26,03,31,10.80
2016,09,26,03,32,10.80
2016,09,26,03,33,10.90
2016,09,26,03,34,10.90
2016,09,26,03,35,11.00
2016,09,26,03,36,11.00
2016,09,26,03,37,11.00
2016,09,26,03,38,11.00
2016,09,26,03,39,11.00
2016,09,26,03,40,10.90
2016,09,26,03,41,10.90
2016,09,26,03,42,10.90
2016,09,26,03,43,10.90
2016,09,26,03,44,10.90
2016,09,26,03,45,11.00
2016,09,26,03,46,11.00
2016,09,26,03,47,11.10
2016,09,26,03,48,11.10
2016,09,26,03,49,11.10
2016,09,26,03,50,11.10
2016,09,26,03,51,11.10
2016,09,26,03,52,11.10
2016,09,26,03,53,11.00
2016,09,26,03,54,10.90
2016,09,26,03,55,10.90
2016,09,26,03,56,10.90
2016,09,26,03,57,10.80
2016,09,26,03,58,10.80
2016,09,26,03,59,10.80
2016,09,26,04,00,10.80
2016,09,26,04,01,10.70
2016,09,26,04,02,10.70
2016,09,26,04,03,10.70
2016,09,26,04,04,10.70
2016,09,26,04,05,10.70
2016,09,26,04,06,10.80
2016,09,26,04,07,10.80
2016,09,26,04,08,10.80
2016,09,26,04,09,10.80
2016,09,26,04,10,10.80
2016,09,26,04,11,10.80
2016,09,26,04,12,10.80
2016,09,26,04,13,10.70
2016,09,26,04,14,10.70
2016,09,26,04,15,10.70
2016,09,26,04,16,10.60
2016,09,26,04,17,10.60
2016,09,26,04,18,10.60
2016,09,26,04,19,10.60
2016,09,26,04,20,10.60
2016,09,26,04,21,10.60
2016,09,26,04,22,10.60
2016,09,26,04,23,10.60
2016,09,26,04,24,10.70
2016,09,26,04,25,10.70
2016,09,26,04,26,10.70
2016,09,26,04,27,10.70
2016,09,26,04,28,10.70
2016,09,26,04,29,10.70
2016,09,26,04,30,10.70
2016,09,26,04,31,10.60
2016,09,26,04,32,10.60
2016,09,26,04,33,10.60
2016,09,26,04,34,10.60
2016,09,26,04,35,10.50
2016,09,26,04,36,10.50
2016,09,26,04,37,10.50
2016,09,26,04,38,10.60
2016,09,26,04,39,10.60
2016,09,26,04,40,10.60
2016,09,26,04,41,10.60
2016,09,26,04,42,10.70
2016,09,26,04,43,10.70
2016,09,26,04,44,10.70
2016,09,26,04,45,10.70
2016,09,26,04,46,10.60
2016,09,26,04,47,10.60
2016,09,26,04,48,10.60
2016,09,26,04,49,10.60
2016,09,26,04,50,10.60
2016,09,26,04,51,10.50
2016,09,26,04,52,10.50
2016,09,26,04,53,10.50
2016,09,26,04,54,10.50
2016,09,26,04,55,10.50
2016,09,26,04,56,10.50
2016,09,26,04,57,10.50
2016,09,26,04,58,10.50
2016,09,26,04,59,10.60
2016,09,26,05,00,10.60
2016,09,26,05,01,10.60
2016,09,26,05,02,10.70
2016,09,26,05,03,10.70
2016,09,26,05,04,10.70
2016,09,26,05,05,10.70
2016,09,26,05,06,10.60
2016,09,26,05,07,10.60
2016,09,26,05,08,10.60
2016,09,26,05,09,10.60
2016,09,26,05,10,10.60
2016,09,26,05,11,10.50
2016,09,26,05,12,10.50
2016,09,26,05,13,10.40
2016,09,26,05,14,10.40
2016,09,26,05,15,10.40
2016,09,26,05,16,10.40
2016,09,26,05,17,10.30
2016,09,26,05,18,10.30
2016,09,26,05,19,10.30
2016,09,26,05,20,10.20
2016,09,26,05,21,10.20
2016,09,26,05,22,10.20
2016,09,26,05,23,10.10
2016,09,26,05,24,10.10
2016,09,26,05,25,10.10
2016,09,26,05,26,10.10
2016,09,26,05,27,10.10
2016,09,26,05,28,10.10
2016,09,26,05,29,10.10
2016,09,26,05,30,10.20
2016,09,26,05,31,10.30
2016,09,26,05,32,10.40
2016,09,26,05,33,10.40
2016,09,26,05,34,10.40
2016,09,26,05,35,10.40
2016,09,26,05,36,10.40
2016,09,26,05,37,10.30
2016,09,26,05,38,10.30
2016,09,26,05,39,10.30
2016,09,26,05,40,10.30
2016,09,26,05,41,10.30
2016,09,26,05,42,10.30
2016,09,26,05,43,10.30
2016,09,26,05,44,10.30
2016,09,26,05,45,10.40
2016,09,26,05,46,10.40
2016,09,26,05,47,10.40
2016,09,26,05,48,10.50
2016,09,26,05,49,10.50
2016,09,26,05,50,10.60
2016,09,26,05,51,10.60
2016,09,26,05,52,10.60
2016,09,26,05,53,10.60
2016,09,26,05,54,10.60
2016,09,26,05,55,10.60
2016,09,26,05,56,10.60
2016,09,26,05,57,10.60
2016,09,26,05,58,10.60
2016,09,26,05,59,10.60
2016,09,26,06,00,10.60
2016,09,26,06,01,10.60
2016,09,26,06,02,10.60
2016,09,26,06,03,10.60
2016,09,26,06,04,10.60
2016,09,26,06,05,10.60
2016,09,26,06,06,10.70
2016,09,26,06,07,10.80
2016,09,26,06,08,10.80
2016,09,26,06,09,10.80
2016,09,26,06,10,10.80
2016,09,26,06,11,10.70
2016,09,26,06,12,10.70
2016,09,26,06,13,10.70
2016,09,26,06,14,10.70
2016,09,26,06,15,10.70
2016,09,26,06,16,10.70
2016,09,26,06,17,10.70
2016,09,26,06,18,10.70
2016,09,26,06,19,10.80
2016,09,26,06,20,10.80
2016,09,26,06,21,10.80
2016,09,26,06,22,10.80
2016,09,26,06,23,10.80
2016,09,26,06,24,10.80
2016,09,26,06,25,10.80
2016,09,26,06,26,10.80
2016,09,26,06,27,10.80
2016,09,26,06,28,10.90
2016,09,26,06,29,10.90
2016,09,26,06,30,10.90
2016,09,26,06,31,10.90
2016,09,26,06,32,11.00
2016,09,26,06,33,11.00
2016,09,26,06,34,11.10
2016,09,26,06,35,11.10
2016,09,26,06,36,11.10
2016,09,26,06,37,11.20
2016,09,26,06,38,11.20
2016,09,26,06,39,11.20
2016,09,26,06,40,11.20
2016,09,26,06,41,11.20
2016,09,26,06,42,11.20
2016,09,26,06,43,11.20
2016,09,26,06,44,11.20
2016,09,26,06,45,11.10
2016,09,26,06,46,11.10
2016,09,26,06,47,11.10
2016,09,26,06,48,11.10
2016,09,26,06,49,11.10
2016,09,26,06,50,11.10
2016,09,26,06,51,11.10
2016,09,26,06,52,11.20
2016,09,26,06,53,11.20
2016,09,26,06,54,11.20
2016,09,26,06,55,11.20
2016,09,26,06,56,11.20
2016,09,26,06,57,11.20
2016,09,26,06,58,11.30
2016,09,26,06,59,11.30
2016,09,26,07,00,11.30
2016,09,26,07,01,11.30
2016,09,26,07,02,11.30
2016,09,26,07,03,11.40
2016,09,26,07,04,11.40
2016,09,26,07,05,11.40
2016,09,26,07,06,11.40
2016,09,26,07,07,11.50
2016,09,26,07,08,11.50
2016,09,26,07,09,11.60
2016,09,26,07,10,11.60
2016,09,26,07,11,11.60
2016,09,26,07,12,11.70
2016,09,26,07,13,11.70
2016,09,26,07,14,11.80
2016,09,26,07,15,11.80
2016,09,26,07,16,11.80
2016,09,26,07,17,11.80
2016,09,26,07,18,11.90
2016,09,26,07,19,11.90
2016,09,26,07,20,12.00
2016,09,26,07,21,12.00
2016,09,26,07,22,12.00
2016,09,26,07,23,12.10
2016,09,26,07,24,12.10
2016,09,26,07,25,12.10
2016,09,26,07,26,12.10
2016,09,26,07,27,12.10
2016,09,26,07,28,12.20
2016,09,26,07,29,12.20
2016,09,26,07,30,12.20
2016,09,26,07,31,12.20
2016,09,26,07,32,12.20
2016,09,26,07,33,12.20
2016,09,26,07,34,12.20
2016,09,26,07,35,12.30
2016,09,26,07,36,12.30
2016,09,26,07,37,12.30
2016,09,26,07,38,12.30
2016,09,26,07,39,12.30
2016,09,26,07,40,12.40
2016,09,26,07,41,12.40
2016,09,26,07,42,12.40
2016,09,26,07,43,12.40
2016,09,26,07,44,12.50
2016,09,26,07,45,12.50
2016,09,26,07,46,12.50
2016,09,26,07,47,12.50
2016,09,26,07,48,12.60
2016,09,26,07,49,12.60
2016,09,26,07,50,12.60
2016,09,26,07,51,12.60
2016,09,26,07,52,12.70
2016,09,26,07,53,12.70
2016,09,26,07,54,12.70
2016,09,26,07,55,12.80
2016,09,26,07,56,12.80
2016,09,26,07,57,12.80
2016,09,26,07,58,12.90
2016,09,26,07,59,12.90
2016,09,26,08,00,13.00
2016,09,26,08,01,13.00
2016,09,26,08,02,13.00
2016,09,26,08,03,13.10
2016,09,26,08,04,13.10
2016,09,26,08,05,13.10
2016,09,26,08,06,13.20
2016,09,26,08,07,13.20
2016,09,26,08,08,13.20
2016,09,26,08,09,13.30
2016,09,26,08,10,13.30
2016,09,26,08,11,13.30
2016,09,26,08,12,13.30
2016,09,26,08,13,13.40
2016,09,26,08,14,13.40
2016,09,26,08,15,13.40
2016,09,26,08,16,13.40
2016,09,26,08,17,13.40
2016,09,26,08,18,13.40
2016,09,26,08,19,13.50
2016,09,26,08,20,13.50
2016,09,26,08,21,13.50
2016,09,26,08,22,13.60
2016,09,26,08,23,13.60
2016,09,26,08,24,13.60
2016,09,26,08,25,13.70
2016,09,26,08,26,13.70
2016,09,26,08,27,13.80
2016,09,26,08,28,13.80
2016,09,26,08,29,13.90
2016,09,26,08,30,13.90
2016,09,26,08,31,14.00
2016,09,26,08,32,14.00
2016,09,26,08,33,14.10
2016,09,26,08,34,14.10
2016,09,26,08,35,14.20
2016,09,26,08,36,14.20
2016,09,26,08,37,14.20
2016,09,26,08,38,14.20
2016,09,26,08,39,14.20
2016,09,26,08,40,14.20
2016,09,26,08,41,14.30
2016,09,26,08,42,14.30
2016,09,26,08,43,14.30
2016,09,26,08,44,14.40
2016,09,26,08,45,14.40
2016,09,26,08,46,14.50
2016,09,26,08,47,14.60
2016,09,26,08,48,14.60
2016,09,26,08,49,14.70
2016,09,26,08,50,14.80
2016,09,26,08,51,14.80
2016,09,26,08,52,14.90
2016,09,26,08,53,15.00
2016,09,26,08,54,15.00
2016,09,26,08,55,15.00
2016,09,26,08,56,15.00
2016,09,26,08,57,15.00
2016,09,26,08,58,15.00
2016,09,26,08,59,15.00
2016,09,26,09,00,15.00
2016,09,26,09,01,15.00
2016,09,26,09,02,15.00
2016,09,26,09,03,15.00
2016,09,26,09,04,15.00
2016,09,26,09,05,15.00
2016,09,26,09,06,15.00
2016,09,26,09,07,15.00
2016,09,26,09,08,15.00
2016,09,26,09,09,15.00
2016,09,26,09,10,15.00
2016,09,26,09,11,15.00
2016,09,26,09,12,15.00
2016,09,26,09,13,15.00
2016,09,26,09,14,15.00
2016,09,26,09,15,15.00
2016,09,26,09,16,15.00
2016,09,26,09,17,14.90
2016,09,26,09,18,14.90
2016,09,26,09,19,14.80
2016,09,26,09,20,14.80
2016,09,26,09,21,14.70
2016,09,26,09,22,14.70
2016,09,26,09,23,14.70
2016,09,26,09,24,14.70
2016,09,26,09,25,14.70
2016,09,26,09,26,14.70
2016,09,26,09,27,14.70
2016,09,26,09,28,14.70
2016,09,26,09,29,14.70
2016,09,26,09,30,14.80
2016,09,26,09,31,14.90
2016,09,26,09,32,14.90
2016,09,26,09,33,15.00
2016,09,26,09,34,15.00
2016,09,26,09,35,15.00
2016,09,26,09,36,15.00
2016,09,26,09,37,15.10
2016,09,26,09,38,15.20
2016,09,26,09,39,15.30
2016,09,26,09,40,15.40
2016,09,26,09,41,15.40
2016,09,26,09,42,15.50
2016,09,26,09,43,15.50
2016,09,26,09,44,15.60
2016,09,26,09,45,15.60
2016,09,26,09,46,15.60
2016,09,26,09,47,15.60
2016,09,26,09,48,15.70
2016,09,26,09,49,15.70
2016,09,26,09,50,15.70
2016,09,26,09,51,15.70
2016,09,26,09,52,15.80
2016,09,26,09,53,15.80
2016,09,26,09,54,15.80
2016,09,26,09,55,15.70
2016,09,26,09,56,15.70
2016,09,26,09,57,15.70
2016,09,26,09,58,15.70
2016,09,26,09,59,15.70
2016,09,26,10,00,15.60
2016,09,26,10,01,15.60
2016,09,26,10,02,15.60
2016,09,26,10,03,15.60
2016,09,26,10,04,15.60
2016,09,26,10,05,15.60
2016,09,26,10,06,15.60
2016,09,26,10,07,15.70
2016,09,26,10,08,15.70
2016,09,26,10,09,15.70
2016,09,26,10,10,15.70
2016,09,26,10,11,15.70
2016,09,26,10,12,15.70
2016,09,26,10,13,15.70
2016,09,26,10,14,15.70
2016,09,26,10,15,15.70
2016,09,26,10,16,15.70
2016,09,26,10,17,15.80
2016,09,26,10,18,15.80
2016,09,26,10,19,15.90
2016,09,26,10,20,15.90
2016,09,26,10,21,15.90
2016,09,26,10,22,16.00
2016,09,26,10,23,16.00
2016,09,26,10,24,16.10
2016,09,26,10,25,16.10
2016,09,26,10,26,16.20
2016,09,26,10,27,16.20
2016,09,26,10,28,16.30
2016,09,26,10,29,16.30
2016,09,26,10,30,16.40
2016,09,26,10,31,16.40
2016,09,26,10,32,16.40
2016,09,26,10,33,16.50
2016,09,26,10,34,16.50
2016,09,26,10,35,16.60
2016,09,26,10,36,16.60
2016,09,26,10,37,16.60
2016,09,26,10,38,16.60
2016,09,26,10,39,16.70
2016,09,26,10,40,16.60
2016,09,26,10,41,16.60
2016,09,26,10,42,16.60
2016,09,26,10,43,16.70
2016,09,26,10,44,16.70
2016,09,26,10,45,16.70
2016,09,26,10,46,16.70
2016,09,26,10,47,16.70
2016,09,26,10,48,16.70
2016,09,26,10,49,16.70
2016,09,26,10,50,16.70
2016,09,26,10,51,16.80
2016,09,26,10,52,16.80
2016,09,26,10,53,16.80
2016,09,26,10,54,16.90
2016,09,26,10,55,16.90
2016,09,26,10,56,17.00
2016,09,26,10,57,17.00
2016,09,26,10,58,17.00
2016,09,26,10,59,17.00
2016,09,26,11,00,17.10
2016,09,26,11,01,17.10
2016,09,26,11,02,17.10
2016,09,26,11,03,17.10
2016,09,26,11,04,17.10
2016,09,26,11,05,17.10
2016,09,26,11,06,17.10
2016,09,26,11,07,17.10
2016,09,26,11,08,17.10
2016,09,26,11,09,17.10
2016,09,26,11,10,17.10
2016,09,26,11,11,17.00
2016,09,26,11,12,17.00
2016,09,26,11,13,17.00
2016,09,26,11,14,16.90
2016,09,26,11,15,16.90
2016,09,26,11,16,16.90
2016,09,26,11,17,17.00
2016,09,26,11,18,16.90
2016,09,26,11,19,16.90
2016,09,26,11,20,17.00
2016,09,26,11,21,17.00
2016,09,26,11,22,16.90
2016,09,26,11,23,16.90
2016,09,26,11,24,17.00
2016,09,26,11,25,17.00
2016,09,26,11,26,17.10
2016,09,26,11,27,17.10
2016,09,26,11,28,17.10
2016,09,26,11,29,17.10
2016,09,26,11,30,17.10
2016,09,26,11,31,17.10
2016,09,26,11,32,17.10
2016,09,26,11,33,17.10
2016,09,26,11,34,17.10
2016,09,26,11,35,17.20
2016,09,26,11,36,17.20
2016,09,26,11,37,17.10
2016,09,26,11,38,17.10
2016,09,26,11,39,17.10
2016,09,26,11,40,17.10
2016,09,26,11,41,17.10
2016,09,26,11,42,17.10
2016,09,26,11,43,17.10
2016,09,26,11,44,17.20
2016,09,26,11,45,17.20
2016,09,26,11,46,17.20
2016,09,26,11,47,17.20
2016,09,26,11,48,17.20
2016,09,26,11,49,17.30
2016,09,26,11,50,17.30
2016,09,26,11,51,17.30
2016,09,26,11,52,17.30
2016,09,26,11,53,17.30
2016,09,26,11,54,17.20
2016,09,26,11,55,17.20
2016,09,26,11,56,17.20
2016,09,26,11,57,17.20
2016,09,26,11,58,17.20
2016,09,26,11,59,17.20
2016,09,26,12,00,17.30
2016,09,26,12,01,17.20
2016,09,26,12,02,17.30
2016,09,26,12,03,17.40
2016,09,26,12,04,17.50
2016,09,26,12,05,17.60
2016,09,26,12,06,17.60
2016,09,26,12,07,17.60
2016,09,26,12,08,17.60
2016,09,26,12,09,17.50
2016,09,26,12,10,17.40
2016,09,26,12,11,17.40
2016,09,26,12,12,17.40
2016,09,26,12,13,17.30
2016,09,26,12,14,17.40
2016,09,26,12,15,17.30
2016,09,26,12,16,17.40
2016,09,26,12,17,17.50
2016,09,26,12,18,17.50
2016,09,26,12,19,17.50
2016,09,26,12,20,17.50
2016,09,26,12,21,17.50
2016,09,26,12,22,17.50
2016,09,26,12,23,17.40
2016,09,26,12,24,17.40
2016,09,26,12,25,17.40
2016,09,26,12,26,17.40
2016,09,26,12,27,17.50
2016,09,26,12,28,17.50
2016,09,26,12,29,17.50
2016,09,26,12,30,17.50
2016,09,26,12,31,17.60
2016,09,26,12,32,17.50
2016,09,26,12,33,17.60
2016,09,26,12,34,17.60
2016,09,26,12,35,17.60
2016,09,26,12,36,17.60
2016,09,26,12,37,17.60
2016,09,26,12,38,17.50
2016,09,26,12,39,17.50
2016,09,26,12,40,17.40
2016,09,26,12,41,17.40
2016,09,26,12,42,17.40
2016,09,26,12,43,17.40
2016,09,26,12,44,17.40
2016,09,26,12,45,17.50
2016,09,26,12,46,17.50
2016,09,26,12,47,17.50
2016,09,26,12,48,17.60
2016,09,26,12,49,17.70
2016,09,26,12,50,17.70
2016,09,26,12,51,17.70
2016,09,26,12,52,17.70
2016,09,26,12,53,17.70
2016,09,26,12,54,17.60
2016,09,26,12,55,17.60
2016,09,26,12,56,17.60
2016,09,26,12,57,17.70
2016,09,26,12,58,17.70
2016,09,26,12,59,17.70
2016,09,26,13,00,17.70
2016,09,26,13,01,17.70
2016,09,26,13,02,17.70
2016,09,26,13,03,17.70
2016,09,26,13,04,17.70
2016,09,26,13,05,17.70
2016,09,26,13,06,17.70
2016,09,26,13,07,17.70
2016,09,26,13,08,17.70
2016,09,26,13,09,17.70
2016,09,26,13,10,17.70
2016,09,26,13,11,17.60
2016,09,26,13,12,17.60
2016,09,26,13,13,17.60
2016,09,26,13,14,17.60
2016,09,26,13,15,17.70
2016,09,26,13,16,17.70
2016,09,26,13,17,17.70
2016,09,26,13,18,17.70
2016,09,26,13,19,17.70
2016,09,26,13,20,17.70
2016,09,26,13,21,17.60
2016,09,26,13,22,17.60
2016,09,26,13,23,17.60
2016,09,26,13,24,17.50
2016,09,26,13,25,17.50
2016,09,26,13,26,17.50
2016,09,26,13,27,17.50
2016,09,26,13,28,17.50
2016,09,26,13,29,17.60
2016,09,26,13,30,17.60
2016,09,26,13,31,17.50
2016,09,26,13,32,17.50
2016,09,26,13,33,17.50
2016,09,26,13,34,17.40
2016,09,26,13,35,17.40
2016,09,26,13,36,17.40
2016,09,26,13,37,17.40
2016,09,26,13,38,17.40
2016,09,26,13,39,17.40
2016,09,26,13,40,17.50
2016,09,26,13,41,17.50
2016,09,26,13,42,17.60
2016,09,26,13,43,17.60
2016,09,26,13,44,17.60
2016,09,26,13,45,17.70
2016,09,26,13,46,17.70
2016,09,26,13,47,17.70
2016,09,26,13,48,17.80
2016,09,26,13,49,17.80
2016,09,26,13,50,17.90
2016,09,26,13,51,17.90
2016,09,26,13,52,18.00
2016,09,26,13,53,18.10
2016,09,26,13,54,18.20
2016,09,26,13,55,18.30
2016,09,26,13,56,18.30
2016,09,26,13,57,18.40
2016,09,26,13,58,18.40
2016,09,26,13,59,18.40
2016,09,26,14,00,18.40
2016,09,26,14,01,18.40
2016,09,26,14,02,18.50
2016,09,26,14,03,18.50
2016,09,26,14,04,18.50
2016,09,26,14,05,18.50
2016,09,26,14,06,18.60
2016,09,26,14,07,18.60
2016,09,26,14,08,18.50
2016,09,26,14,09,18.40
2016,09,26,14,10,18.40
2016,09,26,14,11,18.30
2016,09,26,14,12,18.30
2016,09,26,14,13,18.20
2016,09,26,14,14,18.20
2016,09,26,14,15,18.20
2016,09,26,14,16,18.20
2016,09,26,14,17,18.20
2016,09,26,14,18,18.10
2016,09,26,14,19,18.10
2016,09,26,14,20,18.10
2016,09,26,14,21,18.10
2016,09,26,14,22,18.20
2016,09,26,14,23,18.20
2016,09,26,14,24,18.30
2016,09,26,14,25,18.30
2016,09,26,14,26,18.40
2016,09,26,14,27,18.50
2016,09,26,14,28,18.60
2016,09,26,14,29,18.60
2016,09,26,14,30,18.60
2016,09,26,14,31,18.60
2016,09,26,14,32,18.50
2016,09,26,14,33,18.50
2016,09,26,14,34,18.40
2016,09,26,14,35,18.50
2016,09,26,14,36,18.50
2016,09,26,14,37,18.50
2016,09,26,14,38,18.50
2016,09,26,14,39,18.40
2016,09,26,14,40,18.50
2016,09,26,14,41,18.50
2016,09,26,14,42,18.60
2016,09,26,14,43,18.70
2016,09,26,14,44,18.80
2016,09,26,14,45,18.90
2016,09,26,14,46,19.00
2016,09,26,14,47,19.00
2016,09,26,14,48,19.10
2016,09,26,14,49,19.10
2016,09,26,14,50,19.10
2016,09,26,14,51,19.00
2016,09,26,14,52,19.10
2016,09,26,14,53,19.30
2016,09,26,14,54,19.30
2016,09,26,14,55,19.40
2016,09,26,14,56,19.40
2016,09,26,14,57,19.40
2016,09,26,14,58,19.40
2016,09,26,14,59,19.50
2016,09,26,15,00,19.50
2016,09,26,15,01,19.50
2016,09,26,15,02,19.50
2016,09,26,15,03,19.40
2016,09,26,15,04,19.50
2016,09,26,15,05,19.50
2016,09,26,15,06,19.50
2016,09,26,15,07,19.60
2016,09,26,15,08,19.70
2016,09,26,15,09,19.70
2016,09,26,15,10,19.80
2016,09,26,15,11,19.80
2016,09,26,15,12,19.70
2016,09,26,15,13,19.70
2016,09,26,15,14,19.60
2016,09,26,15,15,19.50
2016,09,26,15,16,19.40
2016,09,26,15,17,19.50
2016,09,26,15,18,19.50
2016,09,26,15,19,19.50
2016,09,26,15,20,19.50
2016,09,26,15,21,19.50
2016,09,26,15,22,19.60
2016,09,26,15,23,19.60
2016,09,26,15,24,19.60
2016,09,26,15,25,19.60
2016,09,26,15,26,19.60
2016,09,26,15,27,19.60
2016,09,26,15,28,19.60
2016,09,26,15,29,19.60
2016,09,26,15,30,19.60
2016,09,26,15,31,19.50
2016,09,26,15,32,19.50
2016,09,26,15,33,19.40
2016,09,26,15,34,19.30
2016,09,26,15,35,19.20
2016,09,26,15,36,19.20
2016,09,26,15,37,19.10
2016,09,26,15,38,19.10
2016,09,26,15,39,19.10
2016,09,26,15,40,19.10
2016,09,26,15,41,19.10
2016,09,26,15,42,19.10
2016,09,26,15,43,19.10
2016,09,26,15,44,19.10
2016,09,26,15,45,19.10
2016,09,26,15,46,19.10
2016,09,26,15,47,19.10
2016,09,26,15,48,19.10
2016,09,26,15,49,19.10
2016,09,26,15,50,19.10
2016,09,26,15,51,19.10
2016,09,26,15,52,19.10
2016,09,26,15,53,19.20
2016,09,26,15,54,19.20
2016,09,26,15,55,19.20
2016,09,26,15,56,19.20
2016,09,26,15,57,19.20
2016,09,26,15,58,19.30
2016,09,26,15,59,19.20
2016,09,26,16,00,19.20
2016,09,26,16,01,19.20
2016,09,26,16,02,19.20
2016,09,26,16,03,19.20
2016,09,26,16,04,19.10
2016,09,26,16,05,19.10
2016,09,26,16,06,19.00
2016,09,26,16,07,19.00
2016,09,26,16,08,18.90
2016,09,26,16,09,18.90
2016,09,26,16,10,18.90
2016,09,26,16,11,18.90
2016,09,26,16,12,19.00
2016,09,26,16,13,19.00
2016,09,26,16,14,19.00
2016,09,26,16,15,19.00
2016,09,26,16,16,18.90
2016,09,26,16,17,18.90
2016,09,26,16,18,18.80
2016,09,26,16,19,18.80
2016,09,26,16,20,18.80
2016,09,26,16,21,18.70
2016,09,26,16,22,18.70
2016,09,26,16,23,18.70
2016,09,26,16,24,18.70
2016,09,26,16,25,18.60
2016,09,26,16,26,18.60
2016,09,26,16,27,18.60
2016,09,26,16,28,18.60
2016,09,26,16,29,18.60
2016,09,26,16,30,18.60
2016,09,26,16,31,18.70
2016,09,26,16,32,18.70
2016,09,26,16,33,18.70
2016,09,26,16,34,18.70
2016,09,26,16,35,18.70
2016,09,26,16,36,18.70
2016,09,26,16,37,18.80
2016,09,26,16,38,18.80
2016,09,26,16,39,18.80
2016,09,26,16,40,18.80
2016,09,26,16,41,18.80
2016,09,26,16,42,18.80
2016,09,26,16,43,18.80
2016,09,26,16,44,18.80
2016,09,26,16,45,18.80
2016,09,26,16,46,18.80
2016,09,26,16,47,18.80
2016,09,26,16,48,18.80
2016,09,26,16,49,18.70
2016,09,26,16,50,18.70
2016,09,26,16,51,18.70
2016,09,26,16,52,18.70
2016,09,26,16,53,18.70
2016,09,26,16,54,18.70
2016,09,26,16,55,18.70
2016,09,26,16,56,18.70
2016,09,26,16,57,18.70
2016,09,26,16,58,18.70
2016,09,26,16,59,18.70
2016,09,26,17,00,18.70
2016,09,26,17,01,18.70
2016,09,26,17,02,18.70
2016,09,26,17,03,18.70
2016,09,26,17,04,18.70
2016,09,26,17,05,18.70
2016,09,26,17,06,18.80
2016,09,26,17,07,18.80
2016,09,26,17,08,18.80
2016,09,26,17,09,18.70
2016,09,26,17,10,18.80
2016,09,26,17,11,18.80
2016,09,26,17,12,18.80
2016,09,26,17,13,18.80
2016,09,26,17,14,18.70
2016,09,26,17,15,18.70
2016,09,26,17,16,18.70
2016,09,26,17,17,18.70
2016,09,26,17,18,18.60
2016,09,26,17,19,18.50